Preview of NWS' New Version of Forecast
This preview is not operational and should not be used for support decisions.

Regional Weather Roundup (RWR)

Issued by National Weather Service (NWS)

                            
000
ASUS43 KMKX 240110
RWRWI 

WISCONSIN REGIONAL WEATHER ROUNDUP
NATIONAL WEATHER SERVICE MILWAUKEE/SULLIVAN WI
800 PM CDT TUE APR 23 2019

NOTE: "FAIR" INDICATES FEW OR NO CLOUDS BELOW 12,000 FEET WITH NO
SIGNIFICANT WEATHER AND/OR OBSTRUCTIONS TO VISIBILITY.

WIZ001-002-006>008-014>016-023>028-240200-
NORTHWEST WISCONSIN
  
CITY           SKY/WX    TMP DP  RH WIND       PRES   REMARKS
SUPERIOR ARPT  FAIR      42  30  63 E6        29.99F                  
ASHLAND        NOT AVBL                                               
HAYWARD        FAIR      57  38  48 CALM      29.99F                  
SIREN          FAIR      59  36  41 S3        29.98F                  
CUMBERLAND     FAIR      54  36  50 SW3       30.00F                  
RICE LAKE      FAIR      57  37  46 CALM      30.01F                  
CHETEK         FAIR      55  37  50 CALM      30.01F                  
LADYSMITH      FAIR      57  35  44 CALM      30.02S                  
EAU CLAIRE     FAIR      58  34  40 SW3       30.00F                  
MENOMONIE      FAIR      58  29  33 CALM      30.01F                  
NEW RICHMOND   FAIR      59  33  37 CALM      30.00F                  
OSCEOLA        FAIR      60  37  42 S3        30.02F                  
$$
 
WIZ003>005-009-010-017-018-240200-
NORTH CENTRAL WISCONSIN
  
CITY           SKY/WX    TMP DP  RH WIND       PRES   REMARKS
MANITOWISH WTR FAIR      47  33  59 CALM      30.02S                  
ARBOR VITAE    FAIR      52  33  48 CALM      30.02S                  
WOODRUFF       FAIR      52  33  48 CALM      30.02S                  
RHINELANDER    FAIR      54  24  31 CALM      30.02F                  
EAGLE RIVER    FAIR      46  27  48 CALM      30.01F                  
LAND O LAKES   FAIR      45  25  44 CALM      30.03F                  
PHILLIPS       FAIR      53  32  45 CALM      30.00S                  
TOMAHAWK       FAIR      48  34  56 CALM      30.03S                  
MEDFORD        FAIR      54  35  48 CALM      30.01S                  
MERRILL        FAIR      54  32  43 CALM      30.02S                  
$$
 
WIZ029-030-035-036-043>047-240200-
CENTRAL WISCONSIN
  
CITY           SKY/WX    TMP DP  RH WIND       PRES   REMARKS
WAUSAU         FAIR      56  29  35 CALM      30.00S                  
MOSINEE        PTCLDY    55  30  38 NE6       30.03S                  
MARSHFIELD     FAIR      56  36  47 CALM      30.01S                  
STEVENS POINT  FAIR      55  30  39 NE5       30.03R                  
WAUPACA        FAIR      60  27  28 CALM      30.02S                  
WAUTOMA        FAIR      59  32  36 CALM      30.02S                  
WISC RAPIDS    FAIR      57  31  37 NW3       30.02S                  
CAMP DOUGLAS   PTCLDY    59  36  41 CALM      30.02R                  
$$
 
WIZ011>013-019>022-031-037>040-048>050-240200-
NORTHEAST WISCONSIN
  
CITY           SKY/WX    TMP DP  RH WIND       PRES   REMARKS
ANTIGO         FAIR      50  33  51 N3        30.03S                  
SHAWANO        FAIR      57  22  25 NW3       30.01S                  
OCONTO         FAIR      44  32  63 E8G16     30.04R                  
STURGEON BAY   FAIR      43  34  70 S6        30.05R                  
GREEN BAY      FAIR      50  40  68 SE9       30.04R                  
MANITOWOC      FAIR      42  35  76 SE3       30.07R                  
APPLETON       PTCLDY    54  28  37 SE14      30.01R                  
CLINTONVILLE   FAIR      59  22  24 N3        30.02R                  
OSHKOSH        FAIR      54  32  43 N8        30.01R                  
$$
 
WIZ032>034-041-042-053>061-240200-
SOUTHWEST WISCONSIN
  
CITY           SKY/WX    TMP DP  RH WIND       PRES   REMARKS
LA CROSSE      FAIR      56  37  49 NW5       30.01F                  
SPARTA         FAIR      58  36  43 CALM      30.02S                  
VIROQUA        FAIR      59  36  43 W5        30.02F                  
BOSCOBEL       FAIR      60  35  39 CALM      30.02R                  
PRAIRIE DU CHI FAIR      61  33  34 NW3       30.01F                  
PLATTEVILLE    FAIR      62  37  40 CALM      30.03S                  
$$

WIZ056-057-062-063-064-067-068-240200-
SOUTH CENTRAL WISCONSIN
  
CITY           SKY/WX    TMP DP  RH WIND       PRES   REMARKS
REEDSBURG      FAIR      60  34  37 NE3       30.02R                  
BARABOO/DELLS  FAIR      59  29  31 NW3       30.02S                  
LONE ROCK      FAIR      60  43  53 N3        30.02R                  
MINERAL POINT  FAIR      61  34  36 NE3       30.03S                  
MADISON        FAIR      59  33  37 NW3       30.01S                  
MIDDLETON      FAIR      55  43  63 CALM      30.02S                  
WATERTOWN      FAIR      58  37  46 NE6       30.01S                  
MONROE         FAIR      60  33  36 MISG      30.02R                  
JANESVILLE     CLEAR     63  32  31 CALM      30.01S                  
$$
 
WIZ051-052-058>065-066-070>072-240200-
SOUTHEAST WISCONSIN
  
CITY           SKY/WX    TMP DP  RH WIND       PRES   REMARKS
MILWAUKEE      FAIR      46  38  73 SE8       30.04S                  
WAUKESHA       CLEAR     52  39  62 E7        30.03R                  
MILWAUKEE/TIMM CLEAR     52  37  58 E6        30.04S                  
RACINE         FAIR      45  38  76 S7        30.06R                  
KENOSHA        FAIR      49  41  74 SE5       30.03S                  
FOND DU LAC    FAIR      56  35  45 N7        30.01R                  
SHEBOYGAN      FAIR      43  36  76 SE5       30.05S                  
WEST BEND      FAIR      43  37  81 E7        30.05R                  
JUNEAU         FAIR      57  34  41 CALM      30.02R                  
$$

LSZ147-162-240200-
LAKE SUPERIOR
  
STATION/POSITION TIME  TEMP    WIND        PRES    WAVE
                       AIR SEA DIR/SP/G            HT/PER
                 (UTC) (F)     (DEG/KT/KT) (MB)    (FT/S)
$$
 
LMZ867-665-643>646-240200-
LAKE MICHIGAN
  
STATION/POSITION TIME  TEMP    WIND        PRES    WAVE
                       AIR SEA DIR/SP/G            HT/PER
                 (UTC) (F)     (DEG/KT/KT) (MB)    (FT/S)
NORTHPORT PIER   0040   41     320/  2/  3 1016.9S
KEWAUNEE LAKESHO 0036   42     170/  6/  8 1016.9R
SHEBOYGAN LAKESH 0100   41     180/  4/  4 1018.2R
MILWAUKEE LAKESH 0050   40                   N/A
KENOSHA   LAKESH 0000   45     180/  9/ 11 1017.3
$$

TC  - TEMPERATURE IN CELSIUS
VSB - VISIBILITY IN STATUTE MILES
WCI - WIND CHILL INDEX
HX  - HEAT INDEX